User: anonymous   Login
Location: Unspecified
(0.0000°N, 0.0000°E)
Time: 23:41:39
(UTC+02:00)
Language:

CZ-2C R/B - Orbit

View from above orbital plane
View from above orbital plane
View from above satellite
View from above satellite

Ground track
Ground track

The orbit data is extracted from the following two-line orbital elements,

1 28480U 04046B   14294.51166897  .00000530  00000-0  21761-3 0  4699
2 28480 098.1074 080.8849 0142327 207.8269 194.0378 14.25354818516086
Epoch (UTC): 21 October 2014 12:16:48
Eccentricity: 0.0142327
inclination: 98.1074°
perigee height: 705 km
apogee height: 909 km
right ascension of ascending node: 80.8849°
argument of perigee: 207.8269°
revolutions per day: 14.25354818
mean anomaly at epoch: 194.0378°
orbit number at epoch: 51608

The dashed part of the orbit path shows where the satellite is in the earth's shadow,  

DLR